• In Kazakhstan
  • List of Countries
  • For 7 days
  • Water Temperature
  • Satellite Maps
  • Weather Map
  • News
  • Weather Widgets
  • user-avatar
    Login

    Hourly Weather Kerns

    Today, 17 August, Thursday

    Time Temperature Precipitation Wind Pressure Humidity
    00:00 +19°C° 0 mm 3 mps 760 mmHg 96%
    01:00 +18°C° 0 mm 3 mps 760 mmHg 95%
    02:00 +18°C° 0 mm 3 mps 760 mmHg 96%
    03:00 +18°C° 0 mm 3 mps 760 mmHg 96%
    04:00 +18°C° 0 mm 3 mps 760 mmHg 96%
    05:00 +18°C° 0 mm 3 mps 760 mmHg 96%
    06:00 +18°C° 0 mm 3 mps 760 mmHg 96%
    07:00 +18°C° 0 mm 3 mps 761 mmHg 95%
    08:00 +21°C° 0 mm 3 mps 761 mmHg 84%
    09:00 +25°C° 0 mm 3 mps 761 mmHg 73%
    10:00 +28°C° 0 mm 3 mps 761 mmHg 61%
    11:00 +29°C° 0 mm 3 mps 761 mmHg 57%
    12:00 +30°C° 0 mm 3 mps 760 mmHg 53%
    13:00 +33°C° 0 mm 3 mps 760 mmHg 49%
    14:00 +31°C° 0 mm 3 mps 759 mmHg 50%
    15:00 +31°C° 0 mm 3 mps 759 mmHg 52%
    16:00 +30°C° 0 mm 3 mps 758 mmHg 56%
    17:00 +28°C° 0 mm 2 mps 759 mmHg 68%
    18:00 +25°C° 0 mm 2 mps 759 mmHg 81%
    19:00 +21°C° 0 mm 2 mps 759 mmHg 93%
    20:00 +21°C° 0 mm 2 mps 760 mmHg 94%
    21:00 +20°C° 0 mm 2 mps 760 mmHg 95%
    22:00 +20°C° 0 mm 2 mps 760 mmHg 96%
    23:00 +19°C° 0 mm 2 mps 760 mmHg 95%

    Tomorrow, 18 August, Friday

    Time Temperature Precipitation Wind Pressure Humidity
    00:00 +19°C° 0 mm 2 mps 760 mmHg 94%
    01:00 +18°C° 0 mm 2 mps 760 mmHg 92%
    02:00 +18°C° 0 mm 2 mps 760 mmHg 92%
    03:00 +18°C° 0 mm 2 mps 760 mmHg 91%
    04:00 +18°C° 0 mm 2 mps 760 mmHg 91%
    05:00 +18°C° 0 mm 2 mps 760 mmHg 91%
    06:00 +18°C° 0 mm 2 mps 761 mmHg 91%
    07:00 +18°C° 0 mm 2 mps 761 mmHg 91%
    08:00 +21°C° 0 mm 3 mps 761 mmHg 78%
    09:00 +25°C° 0 mm 3 mps 762 mmHg 65%
    10:00 +29°C° 0 mm 3 mps 762 mmHg 53%
    11:00 +30°C° 0 mm 3 mps 761 mmHg 48%
    12:00 +32°C° 0 mm 4 mps 761 mmHg 43%
    13:00 +33°C° 0 mm 4 mps 761 mmHg 38%
    14:00 +33°C° 0 mm 4 mps 760 mmHg 40%
    15:00 +33°C° 0 mm 4 mps 760 mmHg 41%
    16:00 +32°C° 0 mm 4 mps 760 mmHg 43%
    17:00 +28°C° 0 mm 4 mps 760 mmHg 56%
    18:00 +25°C° 0 mm 3 mps 760 mmHg 70%
    19:00 +21°C° 0 mm 3 mps 761 mmHg 83%
    20:00 +21°C° 0 mm 3 mps 761 mmHg 82%
    21:00 +21°C° 0 mm 3 mps 762 mmHg 81%
    22:00 +20°C° 0 mm 3 mps 762 mmHg 80%
    23:00 +20°C° 0 mm 3 mps 762 mmHg 78%

    Day after tomorrow, 19 August, Saturday

    Time Temperature Precipitation Wind Pressure Humidity
    00:00 +20°C° 0 mm 3 mps 762 mmHg 76%
    01:00 +20°C° 0 mm 3 mps 762 mmHg 74%
    02:00 +20°C° 0 mm 3 mps 762 mmHg 78%
    03:00 +19°C° 0 mm 4 mps 761 mmHg 82%
    04:00 +19°C° 0 mm 4 mps 761 mmHg 87%
    05:00 +19°C° 0 mm 4 mps 762 mmHg 89%
    06:00 +19°C° 0 mm 4 mps 762 mmHg 91%
    07:00 +19°C° 0 mm 4 mps 763 mmHg 93%
    08:00 +22°C° 0 mm 4 mps 763 mmHg 81%
    09:00 +26°C° 0 mm 5 mps 763 mmHg 69%
    10:00 +29°C° 0 mm 5 mps 763 mmHg 56%
    11:00 +30°C° 0 mm 6 mps 763 mmHg 52%
    12:00 +32°C° 0 mm 6 mps 762 mmHg 49%
    13:00 +32°C° 0 mm 6 mps 762 mmHg 45%
    14:00 +32°C° 0 mm 6 mps 761 mmHg 48%
    15:00 +30°C° 0 mm 7 mps 761 mmHg 51%
    16:00 +29°C° 0 mm 7 mps 761 mmHg 54%
    17:00 +27°C° 0 mm 6 mps 761 mmHg 65%
    18:00 +24°C° 0 mm 6 mps 762 mmHg 76%
    19:00 +22°C° 0 mm 5 mps 762 mmHg 88%
    20:00 +21°C° 0 mm 5 mps 763 mmHg 90%
    21:00 +21°C° 0 mm 5 mps 763 mmHg 92%
    22:00 +20°C° 0 mm 4 mps 764 mmHg 95%
    23:00 +20°C° 0 mm 4 mps 763 mmHg 95%

    20 August, Sunday

    Time Temperature Precipitation Wind Pressure Humidity
    00:00 +19°C° 0 mm 4 mps 763 mmHg 95%
    01:00 +19°C° 0 mm 5 mps 763 mmHg 95%
    02:00 +19°C° 0 mm 5 mps 762 mmHg 95%
    03:00 +19°C° 0 mm 5 mps 762 mmHg 94%
    04:00 +19°C° 0 mm 5 mps 762 mmHg 93%
    05:00 +19°C° 0 mm 5 mps 762 mmHg 92%
    06:00 +17°C° 0 mm 5 mps 763 mmHg 92%
    07:00 +17°C° 0 mm 6 mps 763 mmHg 91%
    08:00 +20°C° 0 mm 6 mps 764 mmHg 77%
    09:00 +23°C° 0 mm 7 mps 764 mmHg 63%
    10:00 +26°C° 0 mm 7 mps 764 mmHg 50%
    11:00 +27°C° 0 mm 7 mps 763 mmHg 47%
    12:00 +28°C° 0 mm 7 mps 763 mmHg 44%
    13:00 +28°C° 0 mm 7 mps 762 mmHg 41%
    14:00 +28°C° 0 mm 7 mps 762 mmHg 44%
    15:00 +27°C° 0 mm 7 mps 761 mmHg 48%
    16:00 +27°C° 0 mm 6 mps 761 mmHg 52%
    17:00 +23°C° 0 mm 6 mps 761 mmHg 62%
    18:00 +21°C° 0 mm 5 mps 762 mmHg 71%
    19:00 +17°C° 0 mm 5 mps 762 mmHg 81%
    20:00 +18°C° 0 mm 4 mps 762 mmHg 83%
    21:00 +17°C° 0 mm 4 mps 763 mmHg 85%
    22:00 +15°C° 0 mm 4 mps 763 mmHg 87%
    23:00 +15°C° 0 mm 4 mps 763 mmHg 86%

    21 August, Monday

    Time Temperature Precipitation Wind Pressure Humidity
    00:00 +14°C° 0 mm 4 mps 763 mmHg 84%
    01:00 +14°C° 0 mm 4 mps 762 mmHg 82%
    02:00 +14°C° 0 mm 4 mps 762 mmHg 84%
    03:00 +14°C° 0 mm 4 mps 762 mmHg 86%
    04:00 +14°C° 0 mm 5 mps 762 mmHg 87%
    05:00 +14°C° 0 mm 5 mps 762 mmHg 89%
    06:00 +15°C° 0 mm 5 mps 762 mmHg 91%
    07:00 +15°C° 0 mm 5 mps 763 mmHg 92%
    08:00 +19°C° 0 mm 5 mps 763 mmHg 81%
    09:00 +21°C° 0 mm 5 mps 763 mmHg 69%
    10:00 +24°C° 0 mm 6 mps 764 mmHg 58%
    11:00 +26°C° 0 mm 6 mps 763 mmHg 54%
    12:00 +27°C° 0 mm 5 mps 762 mmHg 50%
    13:00 +29°C° 0 mm 5 mps 761 mmHg 47%
    14:00 +28°C° 0 mm 5 mps 761 mmHg 49%
    15:00 +28°C° 0 mm 5 mps 761 mmHg 51%
    16:00 +27°C° 0 mm 5 mps 761 mmHg 53%
    17:00 +25°C° 0 mm 4 mps 761 mmHg 64%
    18:00 +22°C° 0 mm 4 mps 762 mmHg 75%
    19:00 +19°C° 0 mm 4 mps 762 mmHg 86%
    20:00 +19°C° 0 mm 4 mps 762 mmHg 89%
    21:00 +18°C° 0 mm 3 mps 763 mmHg 91%
    22:00 +17°C° 0 mm 3 mps 763 mmHg 94%
    23:00 +17°C° 0 mm 3 mps 763 mmHg 94%

    22 August, Tuesday

    Time Temperature Precipitation Wind Pressure Humidity
    00:00 +17°C° 0 mm 3 mps 762 mmHg 95%
    01:00 +17°C° 0 mm 3 mps 762 mmHg 96%
    02:00 +17°C° 0 mm 3 mps 762 mmHg 96%
    03:00 +17°C° 0 mm 3 mps 762 mmHg 97%
    04:00 +17°C° 0 mm 3 mps 762 mmHg 98%
    05:00 +18°C° 0 mm 3 mps 762 mmHg 98%
    06:00 +18°C° 0 mm 3 mps 762 mmHg 98%
    07:00 +18°C° 0 mm 3 mps 763 mmHg 98%
    08:00 +21°C° 0 mm 3 mps 763 mmHg 87%
    09:00 +24°C° 0 mm 3 mps 763 mmHg 75%
    10:00 +27°C° 0 mm 4 mps 763 mmHg 64%
    11:00 +28°C° 0 mm 4 mps 762 mmHg 60%
    12:00 +29°C° 0 mm 4 mps 762 mmHg 55%
    13:00 +30°C° 0 mm 4 mps 761 mmHg 51%
    14:00 +30°C° 0 mm 4 mps 761 mmHg 53%
    15:00 +30°C° 0 mm 4 mps 761 mmHg 56%
    16:00 +29°C° 0 mm 4 mps 761 mmHg 58%
    17:00 +27°C° 0 mm 4 mps 761 mmHg 69%
    18:00 +25°C° 0 mm 4 mps 762 mmHg 81%
    19:00 +21°C° 0 mm 3 mps 763 mmHg 92%
    20:00 +21°C° 0 mm 3 mps 763 mmHg 94%
    21:00 +21°C° 0 mm 3 mps 763 mmHg 95%
    22:00 +20°C° 0 mm 3 mps 764 mmHg 96%
    23:00 +20°C° 0 mm 3 mps 763 mmHg 96%
    Show more